Date,TemperatureHighF,TemperatureAvgF,TemperatureLowF,DewpointHighF,DewpointAvgF,DewpointLowF,HumidityHigh,HumidityAvg,HumidityLow,PressureMaxIn,PressureMinIn,WindSpeedMaxMPH,WindSpeedAvgMPH,GustSpeedMaxMPH,PrecipitationSumIn
2013-6-12,62.6,57.7,51.3,54.3,52.9,50.1,97,85,72,29.68,29.62,3,0,3,0.01
2013-6-13,68.2,57.1,46.6,58.3,52.8,46.3,99,87,57,30.49,29.56,3,0,3,0.14
2013-6-14,77.2,63.9,52.2,59.5,53.2,46.4,99,72,38,29.92,29.18,12,1,12,0.02
2013-6-15,76.8,63.4,47.3,55.2,48.6,42.6,97,63,35,30.03,29.91,9,1,9,0.00
2013-6-16,78.8,59.3,46.0,60.2,54.1,45.2,99,85,47,30.01,27.57,10,0,10,0.02
2013-6-17,84.7,65.9,51.8,65.2,58.5,51.3,99,80,46,30.66,29.88,10,1,10,0.06
2013-6-18,63.5,58.6,50.7,60.1,55.6,50.4,99,90,76,30.10,28.55,4,0,4,0.07
2013-6-19,72.7,60.0,45.9,55.0,48.5,43.4,99,70,39,30.27,30.06,26,1,26,0.00
2013-6-20,80.2,61.2,42.8,56.1,49.2,42.3,99,69,34,30.36,30.27,5,1,5,0.00
2013-6-21,83.3,65.6,47.7,60.1,54.0,47.4,99,70,40,30.34,28.80,6,1,6,0.00
2013-6-22,86.5,69.7,53.2,68.9,61.5,52.7,98,77,51,30.32,29.55,7,1,7,0.04
2013-6-23,88.0,72.0,63.9,78.0,68.5,63.0,99,90,63,30.20,29.53,5,0,5,0.77
2013-6-24,91.9,74.8,63.3,76.3,68.9,62.5,99,84,51,30.11,30.02,9,1,9,0.08
2013-6-25,91.8,77.6,62.2,75.8,68.7,61.7,99,77,54,30.07,29.93,6,1,6,0.00
2013-6-29,88.7,73.2,63.5,75.0,67.3,62.6,99,83,59,29.80,29.61,5,1,5,0.05
2013-6-30,90.1,73.7,62.1,74.1,67.6,61.5,99,84,52,30.04,29.80,4,1,4,0.19
2013-7-1,80.6,71.3,64.2,74.1,69.3,63.4,99,94,77,30.16,30.03,2,0,2,0.97
2013-7-2,85.5,69.3,61.7,79.7,67.9,61.1,99,95,80,30.29,30.14,6,1,6,1.46
2013-7-3,90.1,74.1,61.3,80.2,70.0,60.8,99,88,68,30.28,30.20,4,1,4,0.09
2013-7-4,95.7,79.1,66.4,82.1,73.6,66.1,99,85,63,30.30,30.17,8,1,8,0.12
2013-7-5,95.4,80.7,68.7,82.7,74.7,68.4,99,84,62,30.26,30.15,6,1,6,0.01
2013-7-6,91.6,77.6,67.1,79.3,72.2,66.8,99,85,63,30.19,27.90,7,1,7,0.02
2013-7-7,86.4,74.9,64.6,78.1,71.0,64.3,99,89,67,30.14,29.46,5,0,5,0.04
2013-7-8,85.3,73.7,68.2,76.9,71.6,67.9,99,93,72,30.17,30.04,4,0,4,0.31
2013-7-9,83.1,72.2,65.3,74.6,69.3,65.0,99,91,75,30.21,30.14,8,1,8,0.00
2013-7-10,83.7,71.9,67.5,76.7,70.2,67.2,99,94,78,30.17,29.89,8,1,8,0.84
2013-7-11,80.8,72.0,61.0,75.3,68.4,60.4,99,89,64,30.11,29.87,7,1,7,0.02
2013-7-12,87.6,71.4,59.0,70.2,64.3,58.7,99,80,50,30.32,30.11,4,1,4,0.00
2013-7-13,82.2,70.2,57.2,71.6,66.0,56.8,99,87,63,30.41,30.32,3,0,3,0.00
2013-7-14,68.0,66.4,64.4,67.7,66.1,64.1,99,99,99,30.41,30.39,1,0,1,0.00
2013-7-15,95.4,80.5,68.7,82.7,74.6,68.4,99,84,62,30.32,30.21,6,1,6,0.01
2013-7-16,91.4,78.3,68.9,79.2,72.7,68.6,99,84,63,30.25,30.17,6,1,6,0.02
2013-7-17,86.4,74.7,64.8,78.1,70.5,64.5,99,88,67,30.21,30.09,4,0,4,1.20
2013-7-18,92.7,76.7,68.7,78.9,72.6,68.5,99,88,62,30.22,30.12,5,1,5,0.35
2013-7-19,94.1,80.6,69.3,82.4,74.5,69.0,99,83,64,30.13,29.87,6,1,6,0.14
2013-7-20,92.5,77.5,65.7,76.3,70.4,65.4,99,79,58,29.99,29.84,10,1,10,0.04
2013-7-21,81.0,70.5,60.1,71.0,64.9,59.8,99,84,62,30.18,29.99,6,1,6,0.00
2013-7-22,79.5,68.2,56.7,72.0,65.2,56.4,99,91,75,30.20,30.06,7,1,7,0.01
2013-7-23,74.1,66.7,63.0,70.9,65.6,62.1,99,96,88,30.06,29.74,4,0,5,1.25
2013-7-24,83.5,66.6,52.3,74.4,62.1,48.9,99,86,71,30.19,29.77,29,2,29,0.01
2013-7-25,75.2,62.6,47.8,63.6,56.2,47.6,99,81,58,30.28,30.17,4,1,4,0.00
2013-7-26,75.7,65.0,58.6,67.4,61.7,58.4,99,90,73,30.26,30.14,4,1,6,0.00
2013-7-27,82.4,69.9,52.9,70.4,62.8,52.3,99,80,54,30.22,30.14,5,1,5,0.00
2013-7-28,84.6,70.1,57.9,71.8,65.7,57.7,99,87,60,30.18,30.11,5,1,5,0.27
2013-7-29,89.4,71.7,58.3,74.9,66.6,58.0,99,85,56,30.23,30.14,4,1,4,0.01
2013-7-30,81.0,67.0,54.0,66.9,60.1,53.1,99,81,55,30.28,30.21,11,1,11,0.00
2013-7-31,82.0,68.2,54.3,67.6,61.1,53.5,99,81,51,30.30,30.20,4,1,4,0.00
2013-8-1,86.5,67.7,57.0,72.1,63.7,56.8,99,89,57,30.21,30.02,7,1,7,0.32
2013-8-2,83.8,74.1,60.6,71.4,64.9,59.1,99,74,51,30.02,29.95,8,1,8,0.00
2013-8-3,81.0,69.2,55.8,68.8,62.0,55.5,99,79,58,30.01,29.95,8,1,8,0.17
2013-8-4,80.6,65.8,52.2,67.5,60.1,51.6,99,82,59,30.07,29.97,8,1,8,0.14
2013-8-5,72.7,63.6,48.7,56.3,51.1,44.4,99,66,40,30.22,30.07,8,2,11,0.00
2013-8-6,77.0,67.0,46.0,63.3,57.6,45.2,99,74,55,30.30,30.23,3,1,3,0.00
2013-8-7,84.4,68.8,51.3,68.6,60.9,51.0,99,78,56,30.34,30.22,7,1,7,0.00
2013-8-8,89.1,75.1,62.1,75.0,69.4,61.5,99,84,60,30.24,30.14,5,1,5,0.00
2013-8-9,79.5,71.5,65.3,74.7,70.0,65.0,99,95,83,30.16,29.93,7,1,7,0.43
2013-8-10,82.4,70.6,52.9,69.5,60.1,52.3,99,71,53,30.20,29.97,90,2,90,0.00
2013-8-11,78.8,68.7,52.2,64.6,59.0,51.6,99,73,53,30.25,30.16,8,1,90,0.00
2013-8-12,83.3,71.0,52.9,66.4,61.8,52.3,99,74,54,30.19,30.08,5,1,5,0.00
2013-8-13,72.3,65.0,55.9,69.4,64.2,55.7,99,97,87,30.09,29.86,3,0,3,0.71
2013-8-14,74.1,63.9,53.4,62.7,57.0,52.0,99,79,62,30.12,29.85,11,2,11,0.00
2013-8-15,78.3,63.5,46.2,63.4,55.6,45.4,99,78,54,30.26,30.12,7,1,7,0.00
2013-8-16,81.1,67.5,48.6,65.3,59.4,48.3,99,77,56,30.37,30.26,5,1,5,0.00
2013-8-17,80.2,68.1,52.5,67.4,60.5,52.0,99,78,57,30.45,30.38,4,1,4,0.00
2013-8-18,79.9,68.5,53.8,68.1,62.8,52.9,99,83,62,30.45,30.25,3,0,3,0.00
2013-8-19,82.2,71.1,53.8,67.6,63.4,52.9,99,78,56,30.25,30.12,8,1,8,0.00
2013-8-20,84.2,73.2,55.2,68.9,64.9,54.4,99,77,56,33.48,30.17,4,1,4,0.00
2013-8-21,89.4,74.6,57.6,72.2,66.6,57.3,99,78,53,30.32,30.19,5,1,5,0.00
2013-8-22,92.1,75.3,59.2,74.1,67.2,58.9,99,79,53,30.20,29.99,8,1,8,0.26
2013-8-23,76.5,67.7,54.9,66.3,59.0,51.7,99,75,56,30.32,30.02,8,1,8,0.01
2013-8-24,78.3,64.8,46.2,62.1,55.5,45.4,99,75,47,30.50,30.34,5,1,5,0.00
2013-8-25,81.0,66.9,49.8,64.0,59.0,49.6,99,78,53,30.54,29.74,7,1,7,0.00
2013-8-26,83.7,73.0,60.3,72.0,67.9,60.0,99,85,67,30.34,30.06,7,1,7,0.21
2013-8-27,88.2,77.5,64.2,74.9,70.2,56.2,99,79,62,30.08,30.02,5,1,5,0.00
2013-8-28,89.2,74.5,63.3,75.2,69.4,62.5,99,85,57,30.19,30.03,8,1,8,1.78
2013-8-29,76.5,67.0,60.6,68.8,63.9,60.2,99,90,75,30.25,30.14,4,1,4,0.00
2013-8-30,82.9,73.9,62.8,71.7,67.7,61.9,99,82,64,30.19,29.97,6,1,6,0.00
2013-8-31,79.9,72.9,65.7,74.5,70.7,65.4,99,93,79,30.00,29.93,3,0,3,0.25
2013-9-1,84.6,76.4,66.7,74.3,71.0,66.5,99,84,66,30.05,29.96,0,0,0,0.01
2013-9-2,81.5,72.3,67.3,74.8,70.3,66.7,99,94,79,30.03,29.89,0,0,0,0.85
2013-9-3,78.6,69.0,59.9,72.0,64.7,59.1,99,87,74,29.98,29.88,0,0,0,0.00
2013-9-4,80.1,69.1,57.0,64.5,61.0,56.8,99,77,53,30.08,29.98,0,0,0,0.00
2013-9-5,68.9,58.2,43.2,60.2,50.8,42.6,99,78,52,30.32,30.03,11,1,11,0.06
2013-9-6,69.1,55.7,38.8,53.3,47.8,38.6,99,77,48,30.40,30.24,6,1,6,0.00
2013-9-7,73.0,57.6,45.1,60.3,52.3,44.3,99,84,58,30.24,30.01,2,0,2,0.02
2013-9-8,66.7,56.9,44.8,58.7,49.2,41.3,99,77,57,30.25,29.93,11,2,11,0.02
2013-9-9,72.0,59.5,37.9,54.9,50.7,37.7,99,75,46,30.38,30.25,5,1,5,0.00
2013-9-10,73.6,62.6,47.8,70.2,61.5,47.6,99,96,87,30.27,30.17,2,0,2,0.35
2013-9-11,93.4,77.6,64.2,78.8,72.1,63.4,99,85,60,30.23,30.09,4,1,4,0.32
2013-9-12,83.8,70.6,64.0,75.8,68.1,63.2,99,93,75,30.13,29.85,7,0,7,0.69
2013-9-13,65.3,60.2,54.7,65.0,59.3,53.3,99,97,93,29.98,29.78,6,1,6,0.52
2013-9-14,60.3,55.6,46.8,54.3,52.2,46.5,99,89,78,30.22,29.96,8,1,8,0.00
2013-9-15,71.6,58.2,43.0,57.4,52.6,42.5,99,83,57,30.31,30.16,4,1,4,0.00
2013-9-16,64.0,52.5,38.8,60.6,47.8,37.3,99,84,69,30.44,30.14,9,2,9,0.09
2013-9-17,62.6,53.3,34.7,50.4,45.4,34.2,99,77,56,30.58,30.44,7,1,7,0.00
2013-9-18,69.1,55.0,39.7,57.2,48.8,39.5,99,82,55,30.47,30.28,6,1,6,0.00
2013-9-19,72.7,58.0,44.8,59.1,51.7,44.0,99,82,41,30.31,30.19,4,0,4,0.00
2013-9-20,79.0,63.0,46.9,64.5,56.6,46.7,99,82,55,30.29,30.14,5,1,5,0.00
2013-9-21,77.0,65.5,49.5,62.9,57.6,49.2,99,78,52,30.15,29.91,11,1,11,0.00
2013-9-22,72.5,59.4,46.2,65.4,53.5,43.7,99,81,67,30.02,29.75,8,1,8,0.45
2013-9-23,54.9,48.5,41.9,45.0,42.5,39.5,98,80,68,30.17,30.01,10,2,10,0.00
2013-9-24,60.3,51.9,46.0,48.0,45.3,40.9,91,79,59,30.15,30.01,7,2,7,0.00
2013-9-25,66.6,56.8,44.6,54.9,50.0,43.8,99,79,64,30.17,30.05,8,2,8,0.00
2013-9-26,65.1,54.0,40.5,56.3,48.2,40.2,99,82,63,30.31,30.16,7,1,7,0.00
2013-9-27,64.2,56.9,45.5,57.0,52.8,44.7,99,87,69,30.44,30.31,4,1,4,0.00
2013-9-28,70.3,58.5,45.9,59.6,53.1,45.1,99,84,59,30.51,30.43,4,1,4,0.00
2013-9-29,72.0,59.3,44.6,60.9,53.2,43.8,99,82,60,30.38,30.25,4,0,4,0.00
2013-9-30,69.1,55.8,41.2,57.5,50.4,40.7,99,84,58,30.28,30.13,3,0,3,0.00
2013-10-1,72.1,59.5,45.9,61.3,54.5,45.1,99,85,63,30.17,30.03,4,1,4,0.00
2013-10-2,77.4,63.8,48.0,64.5,57.7,47.8,99,82,64,30.12,30.00,9,1,9,0.00
2013-10-3,73.4,61.3,46.8,58.5,53.2,46.5,99,77,51,30.25,30.13,4,1,4,0.00
2013-10-4,68.0,57.4,45.5,58.9,53.5,44.7,99,88,68,30.27,30.19,4,0,4,0.00
2013-10-5,65.5,60.5,55.4,56.6,54.3,51.2,97,81,65,30.29,30.22,2,0,2,0.00
2013-10-6,56.8,50.1,47.5,55.5,47.3,44.3,99,91,70,30.38,30.28,8,1,8,0.22
2013-10-7,68.0,59.0,50.2,66.2,58.0,49.9,99,96,90,30.28,29.86,8,1,8,0.37
2013-10-8,62.2,52.7,37.0,50.9,44.0,36.3,99,74,55,30.53,28.77,9,1,9,0.00
2013-10-9,61.5,47.1,34.0,48.8,42.0,33.5,99,85,54,30.63,30.51,4,1,4,0.00
2013-10-10,62.8,49.0,36.7,53.1,44.9,35.9,99,87,63,30.51,30.35,3,0,3,0.00
2013-10-11,70.5,54.5,42.4,56.9,49.6,42.2,99,85,57,30.36,30.28,2,0,3,0.00
2013-10-12,58.8,52.1,39.2,54.5,50.1,38.9,99,93,77,30.55,30.35,4,1,4,0.00
2013-10-13,63.3,51.8,39.4,51.6,47.1,39.1,99,85,64,30.59,30.52,6,1,6,0.00
2013-10-14,64.0,57.0,41.5,56.0,52.4,41.3,99,85,71,30.52,30.37,4,0,4,0.00
2013-10-15,65.5,59.8,52.9,57.2,55.0,51.7,98,85,73,30.42,30.31,5,1,5,0.00
2013-10-16,63.3,56.3,49.5,55.1,51.5,48.2,99,84,71,30.30,30.04,6,1,6,0.00
2013-10-17,69.3,57.7,47.1,59.0,51.1,46.3,99,80,58,30.03,29.87,7,1,7,0.07
2013-10-18,66.0,54.8,43.7,59.0,49.3,38.9,99,83,69,30.03,29.75,8,1,8,0.28
2013-10-19,66.2,56.2,35.6,51.1,46.3,34.8,99,70,57,30.09,29.86,5,1,5,0.00
2013-10-20,62.4,51.5,39.6,47.5,40.8,35.8,93,68,53,30.14,29.81,9,2,9,0.00
2013-10-21,62.6,51.6,32.9,48.7,43.4,32.7,99,75,56,30.23,30.08,5,0,5,0.00
2013-10-22,57.0,49.3,35.8,50.2,44.3,32.3,99,83,71,30.07,29.86,7,0,7,0.00
2013-10-23,51.6,42.6,32.2,40.4,36.5,31.3,99,80,62,29.93,29.75,8,0,8,0.00
2013-10-24,53.4,41.4,28.9,40.6,34.3,28.4,98,77,59,30.01,29.80,7,1,7,0.02
2013-10-25,48.4,38.6,30.4,39.5,31.6,26.6,99,77,60,30.24,30.01,10,1,10,0.00
2013-10-26,48.0,43.4,26.8,37.7,34.1,24.5,99,70,59,30.26,29.98,6,1,6,0.00
2013-10-27,51.8,42.5,28.2,42.3,34.1,25.1,90,73,56,30.17,29.92,8,1,8,0.00
2013-10-28,56.3,40.9,26.6,41.3,32.0,19.6,98,71,55,30.49,30.16,8,1,8,0.00
2013-10-29,42.3,32.2,20.1,33.2,23.2,18.0,92,70,53,30.58,30.48,8,1,8,0.00
2013-10-30,45.3,35.6,24.6,37.2,30.8,20.2,97,83,72,30.48,30.32,5,0,5,0.01
2013-10-31,56.7,44.1,28.4,56.4,43.3,28.2,99,97,88,30.37,29.88,7,1,7,0.19
2013-11-1,64.8,60.4,52.0,62.2,55.1,44.8,99,84,66,29.85,29.52,8,2,8,0.59
2013-11-2,60.1,50.6,36.7,50.5,44.6,35.5,99,80,64,29.98,29.76,11,1,11,0.00
2013-11-3,39.9,33.1,25.2,35.5,21.6,15.4,85,63,46,30.56,29.98,11,2,11,0.00
2013-11-4,38.8,29.3,20.7,25.3,18.5,14.3,85,65,49,30.80,27.75,5,1,5,0.00
2013-11-5,45.3,34.9,19.9,33.5,27.9,16.4,89,76,63,30.80,30.60,8,1,8,0.00
2013-11-6,55.8,45.9,30.4,46.3,40.3,28.5,96,81,69,30.60,30.11,8,1,8,0.00
2013-11-7,55.2,49.0,36.7,54.4,46.2,29.2,99,90,74,30.09,29.85,4,0,4,0.15
2013-11-8,43.9,35.3,26.1,34.9,29.8,21.7,91,80,66,30.19,29.97,5,1,5,0.06
2013-11-9,44.8,36.6,30.0,31.9,27.3,22.6,88,69,57,30.30,30.13,5,1,5,0.00
2013-11-10,44.8,38.4,32.4,41.6,37.0,30.1,99,95,84,30.12,29.85,5,1,5,0.18
2013-11-11,44.4,40.0,33.3,34.7,31.7,27.8,89,72,62,30.21,29.99,6,1,6,0.00
2013-11-12,41.0,28.1,24.6,36.5,19.3,15.6,94,69,63,30.32,29.98,10,2,10,0.01
2013-11-13,30.0,24.6,18.3,20.1,13.9,10.6,76,63,51,30.41,30.20,8,1,8,0.00
2013-11-14,44.6,35.5,26.2,33.4,26.8,19.0,87,71,57,30.21,30.14,8,1,8,0.01
2013-11-15,34.3,27.2,23.2,30.6,24.9,21.4,96,91,84,30.29,30.22,1,0,1,0.00
2013-11-16,53.6,36.3,27.7,36.9,30.2,24.1,94,80,46,30.42,30.29,2,0,2,0.00
2013-11-17,48.2,42.6,26.2,47.9,41.9,25.0,99,97,92,30.41,29.96,8,1,8,0.11
2013-11-18,57.2,49.3,38.3,53.5,44.4,35.2,99,84,65,29.94,29.63,8,1,8,0.48
2013-11-19,41.5,32.2,27.7,34.2,21.8,16.3,80,65,60,30.43,29.78,12,3,12,0.00
2013-11-20,34.5,27.0,18.9,21.4,17.2,11.0,80,67,52,30.75,30.44,9,1,9,0.00
2013-11-21,42.8,29.4,14.9,27.9,19.5,11.3,89,68,38,30.75,30.48,4,0,4,0.00
2013-11-22,37.0,34.3,28.4,36.3,33.2,23.0,98,96,78,30.47,29.95,1,0,1,0.14
2013-11-23,38.3,30.4,19.4,38.0,24.2,14.5,99,79,57,30.07,29.89,7,1,7,0.04
2013-11-24,20.3,16.9,11.8,15.9,3.5,-3.5,86,55,47,30.29,29.92,14,3,15,0.00
2013-11-25,25.3,20.0,6.1,16.5,6.3,-6.3,73,55,39,30.46,30.30,8,1,8,0.00
2013-11-26,36.5,31.0,23.9,30.7,26.6,16.5,97,84,72,30.40,30.18,5,1,5,0.05
2013-11-27,46.2,38.1,31.5,45.4,37.6,30.8,99,98,96,30.15,29.46,10,1,10,1.29
2013-11-28,31.3,21.0,12.0,30.0,12.4,5.9,95,69,57,30.51,29.62,10,1,10,0.00
2013-11-29,23.7,17.0,7.7,15.5,7.3,1.5,84,66,52,30.84,30.51,8,1,8,0.00
2013-11-30,25.7,22.4,12.9,16.2,12.1,6.0,75,65,51,30.89,30.50,7,1,7,0.00
2013-12-1,38.3,32.4,25.0,32.7,27.2,16.0,92,81,68,30.50,30.17,2,0,4,0.00
2013-12-2,38.3,34.2,30.9,34.6,31.5,28.9,95,90,83,30.17,30.04,2,0,2,0.00
2013-12-3,37.8,32.7,29.7,35.1,31.1,28.1,99,94,83,30.09,30.03,4,0,4,0.00
2013-12-4,37.9,30.8,23.7,31.2,24.7,21.3,99,78,67,30.31,30.09,5,1,5,0.00
2013-12-5,37.6,35.0,23.5,37.1,33.1,21.3,99,93,78,30.32,30.03,8,1,8,0.02
2013-12-6,41.5,37.7,32.5,40.6,34.9,27.4,99,90,81,30.28,30.01,5,1,5,0.35
2013-12-7,32.4,28.2,20.8,29.9,19.0,14.4,96,69,60,30.55,30.22,8,1,8,0.00
2013-12-8,27.1,24.3,19.4,15.3,13.4,11.6,80,63,54,30.67,30.54,4,1,4,0.00
2013-12-9,23.9,23.1,21.7,18.4,15.4,12.0,84,72,60,30.58,30.33,8,2,8,0.00
2013-12-10,34.3,27.3,18.5,29.1,18.6,8.7,98,70,63,30.05,29.89,6,1,6,0.00
2013-12-11,28.0,23.3,16.7,17.1,12.7,7.0,85,64,53,30.25,30.06,9,1,9,0.00
2013-12-12,17.2,11.3,4.3,10.7,0.2,-4.8,79,61,45,30.38,30.09,6,1,6,0.00
2013-12-13,22.1,13.0,-0.8,13.7,3.1,-11.2,76,64,56,30.51,30.01,9,1,9,0.00
2013-12-14,10.8,7.3,-3.3,5.3,-5.3,-13.0,79,56,42,30.68,30.29,8,1,8,0.00
2013-12-15,26.1,20.5,10.4,20.4,15.4,5.3,86,80,74,30.29,29.62,8,0,8,0.00
2013-12-16,21.9,13.8,-1.5,11.8,0.7,-12.4,74,56,45,30.30,29.92,6,0,6,0.00
2013-12-17,10.8,4.0,-15.0,4.7,-5.4,-24.5,76,64,54,30.35,30.12,0,0,0,0.00
2013-12-18,25.5,15.9,7.0,19.8,9.2,0.3,88,74,65,30.12,30.01,0,0,0,0.00
2013-12-19,37.4,30.1,21.9,28.1,23.3,17.8,86,76,59,30.19,30.02,2,0,2,0.00
2013-12-20,43.3,35.4,29.7,34.9,31.8,26.8,99,87,71,30.21,30.02,0,0,0,0.22
2013-12-21,44.6,37.3,33.1,40.2,35.9,32.8,99,95,82,30.04,29.96,0,0,0,0.21
2013-12-22,40.3,35.0,32.7,40.0,34.5,32.5,99,98,96,30.14,29.85,7,0,7,0.06
2013-12-23,34.7,32.9,31.3,34.2,32.7,31.0,99,99,98,30.25,30.10,0,0,0,0.28
2013-12-24,31.3,23.9,12.9,31.0,13.9,4.0,99,66,53,30.34,30.18,4,0,4,0.00
2013-12-25,14.9,9.5,3.7,4.5,-2.7,-8.0,69,57,48,30.60,30.35,8,0,8,0.00
2013-12-26,27.7,20.6,14.0,20.5,14.2,3.2,88,76,56,31.03,30.20,4,0,4,0.00
2013-12-27,31.3,25.4,19.2,21.2,17.2,11.7,88,71,59,30.32,30.26,4,0,4,0.00
2013-12-28,36.7,30.6,16.0,30.4,25.2,11.7,89,80,70,30.25,30.08,2,0,2,0.05
2013-12-29,34.3,30.5,22.8,31.5,28.0,21.3,98,90,82,30.13,29.72,0,0,0,0.01
2013-12-30,41.7,39.2,37.8,41.5,39.0,37.5,99,99,99,30.57,30.52,0,0,2,0.01
2013-12-31,62.8,20.6,3.0,52.8,14.0,-4.3,99,75,62,30.52,30.18,2,0,2,0.00
2014-1-1,18.7,12.2,2.3,5.7,1.3,-4.1,74,61,50,30.50,30.25,8,0,8,0.00
2014-1-2,7.2,3.2,0.5,-2.5,-5.3,-9.0,70,66,63,30.50,30.10,2,0,2,0.00